TimeCDT,TemperatureF,Dew PointF,Humidity,Sea Level PressureIn,VisibilityMPH,Wind Direction,Wind SpeedMPH,Gust SpeedMPH,PrecipitationIn,Events,Conditions,WindDirDegrees,DateUTC
12:45 AM,71.6,69.8,94,29.83,7.0,North,11.5,-,N/A,,Scattered Clouds,360,2013-05-03 05:45:00
1:41 AM,71.6,69.8,94,29.86,7.0,North,10.4,-,N/A,,Scattered Clouds,360,2013-05-03 06:41:00
3:32 AM,71.6,69.8,94,29.84,7.0,North,10.4,-,N/A,,Partly Cloudy,360,2013-05-03 08:32:00
4:30 AM,71.6,69.8,94,29.89,7.0,North,9.2,-,N/A,,Partly Cloudy,360,2013-05-03 09:30:00
4:49 AM,71.6,69.8,94,29.86,7.0,North,8.1,-,N/A,,Partly Cloudy,360,2013-05-03 09:49:00
5:47 AM,69.8,68.0,94,29.88,7.0,North,8.1,-,N/A,,Partly Cloudy,350,2013-05-03 10:47:00
6:48 AM,69.8,68.0,94,29.84,7.0,NNW,8.1,-,N/A,,Partly Cloudy,340,2013-05-03 11:48:00
7:50 AM,71.6,68.0,88,29.91,8.0,NW,13.8,-,N/A,,Partly Cloudy,320,2013-05-03 12:50:00
8:41 AM,73.4,69.8,88,29.92,8.0,NW,13.8,-,N/A,,Scattered Clouds,310,2013-05-03 13:41:00
9:40 AM,75.2,68.0,78,29.95,8.0,NW,15.0,-,N/A,,Scattered Clouds,320,2013-05-03 14:40:00
10:41 AM,78.8,68.0,69,29.93,8.0,NW,15.0,-,N/A,,Partly Cloudy,320,2013-05-03 15:41:00
11:42 AM,80.6,66.2,61,29.93,8.0,NW,11.5,-,N/A,,Scattered Clouds,320,2013-05-03 16:42:00
12:50 PM,82.4,66.2,58,29.89,8.0,WNW,11.5,-,N/A,,Scattered Clouds,300,2013-05-03 17:50:00
1:41 PM,86.0,66.2,51,29.89,8.0,NNW,17.3,-,N/A,,Mostly Cloudy,330,2013-05-03 18:41:00
2:41 PM,86.0,66.2,51,29.86,8.0,NW,17.3,-,N/A,,Scattered Clouds,310,2013-05-03 19:41:00
3:52 PM,84.2,66.2,55,29.88,8.0,NNW,17.3,-,N/A,,Scattered Clouds,330,2013-05-03 20:52:00
4:51 PM,84.2,64.4,51,29.86,8.0,NNW,17.3,-,N/A,,Scattered Clouds,330,2013-05-03 21:51:00
5:42 PM,82.4,62.6,51,29.86,8.0,NNW,18.4,-,N/A,,Partly Cloudy,330,2013-05-03 22:42:00
6:42 PM,80.6,64.4,58,29.84,8.0,NNW,20.7,-,N/A,,Scattered Clouds,330,2013-05-03 23:42:00
7:44 PM,75.2,64.4,69,29.90,7.0,NNW,20.7,-,N/A,,Scattered Clouds,330,2013-05-04 00:44:00
8:45 PM,75.2,66.2,73,29.93,7.0,NNW,20.7,-,N/A,,Scattered Clouds,330,2013-05-04 01:45:00
9:40 PM,71.6,66.2,83,29.98,7.0,NW,20.7,-,N/A,,Partly Cloudy,320,2013-05-04 02:40:00
10:49 PM,71.6,66.2,83,29.96,7.0,NW,19.6,-,N/A,,Partly Cloudy,320,2013-05-04 03:49:00
11:42 PM,69.8,66.2,88,29.95,7.0,NW,16.1,-,N/A,,Partly Cloudy,320,2013-05-04 04:42:00